This demonstration page uses our WeatherBlox Daily Observations layout. Learn more.

Left ArrowRight Arrow

39.08367, -84.50855

Hourly Observations for August 3, 2017

Temp ( °F °C ) Dew Point ( °F °C ) Humidity (%) Winds ( mph kmh ) Pressure ( in mb ) Visibility ( mi km ) Precip ( " mm )
12:53 am 00:53 Mostly Clear 69 20.6 68 20 96 96 N N/A 30.06 1018 10 16.0934 N/A
1:53 am 01:53 Clear 67 19.4 67 19.4 100 100 N N/A 30.06 1018 7 11.26538 N/A
2:15 am 02:15 Clear with Mist and Fog 67 19.4 67 19.4 100 100 N N/A 30.03 1017 1.75 2.816345 N/A
2:24 am 02:24 Clear with Mist and Fog 67 19.4 67 19.4 100 100 N N/A 30.03 1017 3 4.82802 N/A
2:53 am 02:53 Clear with Mist and Fog 66 18.9 66 18.9 100 100 SSE 3 6 30.05 1018 6 9.65604 N/A
3:53 am 03:53 Clear with Mist and Fog 66 18.9 66 18.9 100 100 N N/A 30.05 1018 5 8.0467 N/A
4:13 am 04:13 Mostly Clear with Mist and Fog 64 17.8 64 17.8 100 100 N N/A 30.03 1017 1.5 2.41401 N/A
4:18 am 04:18 Mostly Cloudy with Fog 65 18.3 65 18.3 100 100 N N/A 30.03 1017 0.25 0.402335 N/A
4:27 am 04:27 Mostly Cloudy with Mist and Fog 65 18.3 65 18.3 100 100 N N/A 30.03 1017 1 1.60934 N/A
4:29 am 04:29 Mostly Clear with Mist and Fog 65 18.3 65 18.3 100 100 N N/A 30.03 1017 2.5 4.02335 N/A
4:36 am 04:36 Mostly Clear with Mist and Fog 65 18.3 65 18.3 100 100 N N/A 30.03 1017 6 9.65604 N/A
4:46 am 04:46 Clear with Mist and Fog 66 18.9 66 18.9 100 100 SSW 5 7 30.03 1017 2.5 4.02335 N/A
4:53 am 04:53 Clear 65 18.3 65 18.3 100 100 N N/A 30.05 1018 7 11.26538 N/A
5:34 am 05:34 Clear with Mist and Fog 64 17.8 64 17.8 100 100 SSW 3 6 30.06 1018 2 3.21868 N/A
5:41 am 05:41 Clear with Mist and Fog 65 18.3 65 18.3 100 100 N N/A 30.06 1018 1 1.60934 N/A
5:48 am 05:48 Clear with Mist and Fog 64 18 64 18 100 100 N N/A 30.06 1018 3 4.82802 N/A
5:53 am 05:53 Clear with Mist and Fog 65 18.3 65 18.3 100 100 WSW 3 6 30.07 1018 6 9.65604 N/A
6:08 am 06:08 Clear with Mist and Fog 64 17.8 64 17.8 100 100 N N/A 30.06 1018 1.75 2.816345 N/A
6:17 am 06:17 Clear with Mist and Fog 64 17.8 64 17.8 100 100 N N/A 30.06 1018 4 6.43736 N/A
6:40 am 06:40 Clear with Mist and Fog 65 18.3 65 18.3 100 100 N N/A 30.06 1018 2 3.21868 N/A
6:47 am 06:47 Sunny with Mist and Fog 64 18 64 18 100 100 N N/A 30.06 1018 0.75 1.207005 N/A
6:53 am 06:53 Partly Cloudy with Patchy Fog 64 17.8 64 17.8 100 100 N N/A 30.08 1019 10 16.0934 N/A
7:53 am 07:53 Sunny 67 19.4 67 19.4 100 100 N N/A 30.09 1019 10 16.0934 N/A
8:53 am 08:53 Sunny 70 21.1 68 20 93 93 S 3 6 30.09 1019 10 16.0934 N/A
9:53 am 09:53 Sunny 74 23.3 69 20.6 85 85 SSW 6 9 30.09 1019 10 16.0934 N/A
10:53 am 10:53 Sunny 77 25 71 21.7 82 82 S 6 9 30.08 1019 10 16.0934 N/A
12:53 pm 12:53 Sunny 82 27.8 71 21.7 69 69 SSE 8 13 30.05 1018 10 16.0934 N/A
1:53 pm 13:53 Partly Cloudy 84 28.9 71 21.7 65 65 VRB 7 11 30.03 1017 10 16.0934 N/A
2:53 pm 14:53 Partly Cloudy 84 28.9 69 20.6 61 61 SSW 13 20 30.01 1016 10 16.0934 N/A
3:53 pm 15:53 Mostly Cloudy 85 29.4 69 20.6 59 59 SW 10 17 29.98 1015 10 16.0934 N/A
4:53 pm 16:53 Partly Cloudy 86 30 69 20.6 57 57 S 14 22 29.96 1015 10 16.0934 N/A
5:53 pm 17:53 Partly Cloudy 84 28.9 69 20.6 61 61 S 16 26 29.96 1015 10 16.0934 N/A
6:53 pm 18:53 Mostly Sunny 83 28.3 71 21.7 67 67 SSW 8 13 29.96 1015 10 16.0934 N/A
7:53 pm 19:53 Mostly Sunny 81 27.2 70 21.1 69 69 SW 14 22 29.98 1015 10 16.0934 N/A
8:53 pm 20:53 Clear 78 25.6 67 19.4 69 69 SW 15 24 29.98 1015 10 16.0934 N/A
9:53 pm 21:53 Clear 73 22.8 68 20 84 84 SSW 6 9 29.97 1015 10 16.0934 N/A
10:53 pm 22:53 Clear 72 22.2 69 20.6 91 91 S 3 6 29.97 1015 10 16.0934 N/A
11:53 pm 23:53 Clear 71 21.7 68 20 90 90 WSW 5 7 29.95 1014 10 16.0934 N/A

Powered by AerisWeather